Morgantown, WV

3:35 PM EDT on October 18, 2017 (GMT -0400)
Morgantown Municipal-Hart

Weather History for KMGW - February, 2013

Change the Weather History Date:

Monday, February 11, 2013

  Actual Average Record
Temperature  
Mean Temperature 52 °F 33 °F  
Max Temperature 63 °F 42 °F 73 °F (1999)
Min Temperature 40 °F 25 °F -2 °F (1979)
Degree Days  
Heating Degree Days 13 32  
Month to date heating degree days 385 356  
Since 1 July heating degree days 3169 3383  
Cooling Degree Days 0 0  
Month to date cooling degree days 0 0  
Year to date cooling degree days 0 0  
Growing Degree Days 2 (Base 50)    
Moisture  
Dew Point 34 °F    
Average Humidity 53    
Maximum Humidity 83    
Minimum Humidity 23    
Precipitation  
Precipitation 0.02 in 0.10 in 0.50 in (1953)
Month to date precipitation 0.19 1.00  
Year to date precipitation 3.33 3.81  
Sea Level Pressure  
Sea Level Pressure 29.84 in    
Wind  
Wind Speed 11 mph (SW)    
Max Wind Speed 24 mph    
Max Gust Speed 40 mph    
Visibility 10 miles    
Events Rain    
T = Trace of Precipitation, MM = Missing Value Source: NWS Daily Summary

Daily Weather History Graph

Daily Weather History Graph

Search for Another Location

Airport or City:

Trip Planner

Search our weather history database for the weather conditions in past years. The results will help you decide how hot, cold, wet, or windy it might be!

Date:

Astronomy

Feb. 11, 2013 Rise Set
Actual Time 7:16 AM EST 5:51 PM EST
Civil Twilight 6:48 AM EST 6:19 PM EST
Nautical Twilight 6:17 AM EST 6:51 PM EST
Astronomical Twilight 5:45 AM EST 7:22 PM EST
Moon 7:40 AM EST (2/11) 7:46 PM EST (2/11)
Length of Visible Light 11h 30m
Length of Day
10h 35m
Waxing Crescent, 3% of the Moon is Illuminated
Feb 11
Waxing Crescent
Feb 17
First Quarter
Feb 25
Full
Mar 4
Last Quarter
Mar 11
New

Hourly Weather History & Observations

Time (EST) Temp. Windchill Dew Point Humidity Pressure Visibility Wind Dir Wind Speed Gust Speed Precip Events Conditions
12:32 AM 41.0 °F 34.7 °F 37.4 °F 87% 29.94 in 10.0 mi SE 10.4 mph - 0.02 in   Overcast
12:53 AM 43.0 °F 39.5 °F 39.0 °F 86% 29.95 in 10.0 mi SSE 5.8 mph - 0.02 in   Overcast
1:53 AM 45.0 °F 40.1 °F 39.0 °F 80% 29.92 in 10.0 mi South 9.2 mph 17.3 mph N/A   Overcast
2:53 AM 48.0 °F - 41.0 °F 77% 29.89 in 10.0 mi South 9.2 mph - N/A   Overcast
3:53 AM 50.0 °F - 41.0 °F 71% 29.87 in 10.0 mi South 6.9 mph - N/A   Overcast
4:53 AM 50.0 °F - 41.0 °F 71% 29.85 in 10.0 mi South 5.8 mph - N/A   Overcast
5:53 AM 53.1 °F - 42.1 °F 66% 29.86 in 10.0 mi SSW 6.9 mph - N/A   Overcast
6:53 AM 53.1 °F - 43.0 °F 69% 29.86 in 10.0 mi SSW 8.1 mph - 0.00 in Rain Light Rain
7:53 AM 52.0 °F - 45.0 °F 77% 29.86 in 10.0 mi Variable 6.9 mph - 0.00 in   Overcast
8:53 AM 54.0 °F - 46.0 °F 75% 29.84 in 10.0 mi South 10.4 mph 18.4 mph N/A   Overcast
9:53 AM 57.0 °F - 46.9 °F 69% 29.82 in 10.0 mi SW 11.5 mph 24.2 mph 0.01 in   Scattered Clouds
10:53 AM 60.1 °F - 43.0 °F 53% 29.79 in 10.0 mi SW 13.8 mph 29.9 mph N/A   Partly Cloudy
11:53 AM 62.1 °F - 39.9 °F 44% 29.76 in 10.0 mi SW 16.1 mph 36.8 mph N/A   Mostly Cloudy
12:53 PM 62.1 °F - 30.0 °F 30% 29.73 in 10.0 mi WSW 21.9 mph 39.1 mph N/A   Scattered Clouds
1:53 PM 63.0 °F - 28.9 °F 28% 29.70 in 10.0 mi WSW 19.6 mph 40.3 mph N/A   Clear
2:53 PM 62.1 °F - 25.0 °F 24% 29.71 in 10.0 mi SW 17.3 mph 38.0 mph N/A   Partly Cloudy
3:53 PM 61.0 °F - 23.0 °F 23% 29.72 in 10.0 mi WSW 19.6 mph 34.5 mph N/A   Clear
4:53 PM 57.9 °F - 21.0 °F 24% 29.73 in 10.0 mi WSW 10.4 mph 29.9 mph N/A   Clear
5:53 PM 55.9 °F - 21.0 °F 26% 29.76 in 10.0 mi West 10.4 mph 24.2 mph N/A   Clear
6:53 PM 53.1 °F - 24.1 °F 32% 29.80 in 10.0 mi West 10.4 mph 21.9 mph N/A   Clear
7:53 PM 46.0 °F 41.9 °F 30.0 °F 54% 29.87 in 10.0 mi WNW 8.1 mph 19.6 mph N/A   Partly Cloudy
8:53 PM 44.1 °F 39.0 °F 28.9 °F 55% 29.90 in 10.0 mi West 9.2 mph - N/A   Mostly Cloudy
9:53 PM 43.0 °F 39.5 °F 28.9 °F 58% 29.92 in 10.0 mi Variable 5.8 mph 16.1 mph N/A   Mostly Cloudy
10:53 PM 43.0 °F 37.2 °F 27.0 °F 53% 29.93 in 10.0 mi West 10.4 mph 21.9 mph N/A   Overcast
11:53 PM 42.1 °F 36.6 °F 26.1 °F 53% 29.95 in 10.0 mi West 9.2 mph 21.9 mph N/A   Overcast